Location: Fort Wayne
(41.1310°N, 85.1290°W)
Time: 14:42:51
(UTC-04:00)

COSMOS 2428 - Visible Passes

Search period start: 27 August 2016 00:00
Search period end: 06 September 2016 00:00
Orbit: 844 x 859 km, 70.9° (Epoch: 27 August)

Date Brightness Start Highest point End Pass type
(mag) Time Alt. Az. Time Alt. Az. Time Alt. Az.
27 Aug 4.7 00:55:04 21° NNE 00:55:04 21° NNE 00:56:54 10° NNE visible
27 Aug 4.9 02:37:04 18° NW 02:37:04 18° NW 02:40:04 10° N visible
28 Aug 4.7 00:43:01 21° NNE 00:43:01 21° NNE 00:44:45 10° NNE visible
28 Aug 4.9 02:25:00 18° NW 02:25:00 18° NW 02:27:55 10° N visible
29 Aug 4.7 00:30:56 20° NNE 00:30:56 20° NNE 00:32:36 10° NNE visible
29 Aug 4.9 02:12:55 18° NW 02:12:55 18° NW 02:15:46 10° N visible
30 Aug 4.7 00:18:49 20° NNE 00:18:49 20° NNE 00:20:28 10° NNE visible
30 Aug 5.0 02:00:48 18° NW 02:00:48 18° NW 02:03:37 10° N visible
31 Aug 4.7 00:06:40 20° NNE 00:06:40 20° NNE 00:08:19 10° NNE visible
31 Aug 5.0 01:48:39 18° NW 01:48:39 18° NW 01:51:28 10° N visible
31 Aug 4.7 23:54:28 20° NNE 23:54:28 20° NNE 23:56:11 10° NNE visible
01 Sep 5.0 01:36:28 18° NW 01:36:28 18° NW 01:39:20 10° N visible
01 Sep 4.6 23:42:13 21° NNE 23:42:13 21° NNE 23:44:02 10° NNE visible
02 Sep 5.0 01:24:12 18° NW 01:24:12 18° NW 01:27:11 10° N visible
02 Sep 4.5 23:29:54 23° NNE 23:29:54 23° NNE 23:31:54 10° NNE visible
03 Sep 5.0 01:11:53 18° NW 01:11:53 18° NW 01:15:03 10° N visible
03 Sep 4.3 23:17:30 25° NNE 23:17:30 25° NNE 23:19:46 10° NNE visible
04 Sep 5.0 00:59:27 19° NW 00:59:27 19° NW 01:02:54 10° N visible
04 Sep 4.1 23:04:57 29° NNE 23:04:57 29° NNE 23:07:37 10° NNE visible
05 Sep 5.0 00:46:54 19° NW 00:46:54 19° NW 00:50:45 10° N visible
05 Sep 3.7 22:52:13 35° NE 22:52:13 35° NE 22:55:29 10° NNE visible
